Wetter

ACHTUNG: Die hier angeboten Wetter-Informationen sind nicht geeicht und dürfen für Flugvorbereitungen nicht verwendet werden
ACG Flugwetter

METAR/TAF LOXZ

LOXZ 061950Z 30003KT 270V020 0500 FZFG VV001 M13/M15 Q1012

TAF LOXZ 181415Z 1812/1824 CNL

METAR/TAF LOXA

LOXA 100820Z VRB02KT 50KM FEW120AC SCT300CI 17/13 Q1021 NOSIG RMK SCT

TAF TAF LOXA 090515Z 0906/0918 VRB03KT 0500 FG SCT060 BECMG 0906/0908 9999 NSW FEW060 BECMG 0909/0911 04007KT TEMPO 0910/0915 SCT060 BKN100

METAR/TAF LOWG 

LOWG 061950Z AUTO VRB02KT CAVOK M03/M04 Q1012 NOSIG

TAF LOWG 061715Z 0618/0718 VRB05KT 9999 FEW050 TX03/0713Z TNM06/0706Z

(Information der letzten Stunde)

(Information der letzten Stunde)

Dichtehöhe (in LOGT)
Temperatur / Windchill der letzten 10 Tage

Ext. Links zu Wetterdiensten

ALDIS

Öster.- Unwetterzentrale